• In Russia
  • List of Countries
  • For 7 days
  • Water Temperature
  • Satellite Maps
  • Weather Map
  • Weather Widgets
  • user-avatar
    Login

    Hourly Weather Subash

    Today, 22 April, Sunday

    Time Temperature Precipitation Wind Pressure Humidity
    00:00 0°C° 0.6 mm 9 mps 732 mmHg 72%
    01:00 0°C° 0.2 mm 9 mps 731 mmHg 73%
    02:00 +1°C° 0.2 mm 9 mps 730 mmHg 75%
    03:00 +1°C° 0.2 mm 10 mps 729 mmHg 76%
    04:00 +1°C° 0.6 mm 10 mps 728 mmHg 78%
    05:00 +1°C° 0.6 mm 10 mps 727 mmHg 81%
    06:00 +2°C° 0.6 mm 10 mps 726 mmHg 84%
    07:00 +2°C° 1.3 mm 9 mps 726 mmHg 86%
    08:00 +2°C° 1.3 mm 9 mps 726 mmHg 88%
    09:00 +2°C° 1.3 mm 9 mps 725 mmHg 90%
    10:00 +4°C° 0.6 mm 8 mps 725 mmHg 89%
    11:00 +5°C° 0.6 mm 7 mps 726 mmHg 88%
    12:00 +5°C° 0.6 mm 7 mps 726 mmHg 87%
    13:00 +6°C° 0.1 mm 7 mps 726 mmHg 82%
    14:00 +6°C° 0.1 mm 7 mps 726 mmHg 78%
    15:00 +8°C° 0.1 mm 7 mps 727 mmHg 73%
    16:00 +5°C° 0.1 mm 7 mps 727 mmHg 74%
    17:00 +4°C° 0.1 mm 7 mps 728 mmHg 74%
    18:00 +2°C° 0.1 mm 6 mps 728 mmHg 75%
    19:00 +1°C° 0 mm 6 mps 729 mmHg 76%
    20:00 +1°C° 0 mm 6 mps 729 mmHg 76%
    21:00 0°C° 0 mm 5 mps 730 mmHg 77%
    22:00 -1°C° 0 mm 5 mps 730 mmHg 78%
    23:00 -2°C° 0 mm 5 mps 730 mmHg 79%

    Tomorrow, 23 April, Monday

    Time Temperature Precipitation Wind Pressure Humidity
    00:00 -3°C° 0 mm 6 mps 731 mmHg 81%
    01:00 -3°C° 0 mm 6 mps 731 mmHg 80%
    02:00 -4°C° 0 mm 6 mps 731 mmHg 80%
    03:00 -4°C° 0 mm 7 mps 732 mmHg 80%
    04:00 -4°C° 0.1 mm 7 mps 732 mmHg 80%
    05:00 -4°C° 0.1 mm 7 mps 732 mmHg 81%
    06:00 -5°C° 0.1 mm 8 mps 732 mmHg 81%
    07:00 -3°C° 0.2 mm 7 mps 733 mmHg 81%
    08:00 -3°C° 0.2 mm 7 mps 733 mmHg 80%
    09:00 -3°C° 0.2 mm 7 mps 734 mmHg 80%
    10:00 -3°C° 0.3 mm 7 mps 734 mmHg 80%
    11:00 -3°C° 0.3 mm 7 mps 735 mmHg 79%
    12:00 -3°C° 0.3 mm 6 mps 736 mmHg 79%
    13:00 -3°C° 0.2 mm 6 mps 736 mmHg 78%
    14:00 -3°C° 0.2 mm 6 mps 737 mmHg 78%
    15:00 -2°C° 0.2 mm 6 mps 737 mmHg 77%
    16:00 -3°C° 0.1 mm 6 mps 738 mmHg 78%
    17:00 -3°C° 0.1 mm 6 mps 738 mmHg 79%
    18:00 -2°C° 0.1 mm 5 mps 738 mmHg 81%
    19:00 -2°C° 0 mm 5 mps 739 mmHg 83%
    20:00 -4°C° 0 mm 5 mps 739 mmHg 85%
    21:00 -4°C° 0 mm 4 mps 740 mmHg 88%
    22:00 -4°C° 0 mm 4 mps 740 mmHg 88%
    23:00 -4°C° 0 mm 4 mps 740 mmHg 89%

    Day after tomorrow, 24 April, Tuesday

    Time Temperature Precipitation Wind Pressure Humidity
    00:00 -4°C° 0 mm 4 mps 740 mmHg 89%
    01:00 -4°C° 0.1 mm 4 mps 740 mmHg 89%
    02:00 -4°C° 0.1 mm 4 mps 740 mmHg 89%
    03:00 -4°C° 0.1 mm 4 mps 740 mmHg 88%
    04:00 -4°C° 0.1 mm 5 mps 740 mmHg 87%
    05:00 -4°C° 0.1 mm 5 mps 741 mmHg 86%
    06:00 -4°C° 0.1 mm 5 mps 741 mmHg 85%
    07:00 -4°C° 0.1 mm 5 mps 741 mmHg 83%
    08:00 -3°C° 0.1 mm 6 mps 742 mmHg 81%
    09:00 -3°C° 0.1 mm 6 mps 742 mmHg 78%
    10:00 -2°C° 0.1 mm 6 mps 742 mmHg 77%
    11:00 -2°C° 0.1 mm 6 mps 743 mmHg 77%
    12:00 -1°C° 0.1 mm 6 mps 743 mmHg 76%
    13:00 -1°C° 0.1 mm 6 mps 743 mmHg 75%
    14:00 -1°C° 0.1 mm 6 mps 744 mmHg 75%
    15:00 +1°C° 0.1 mm 6 mps 744 mmHg 75%
    16:00 -1°C° 0 mm 6 mps 745 mmHg 77%
    17:00 0°C° 0 mm 5 mps 745 mmHg 79%
    18:00 0°C° 0 mm 4 mps 745 mmHg 80%
    19:00 -1°C° 0 mm 4 mps 746 mmHg 83%
    20:00 -1°C° 0 mm 4 mps 746 mmHg 86%
    21:00 -2°C° 0 mm 4 mps 747 mmHg 89%
    22:00 -2°C° 0 mm 4 mps 747 mmHg 90%
    23:00 -2°C° 0 mm 3 mps 747 mmHg 91%

    25 April, Wednesday

    Time Temperature Precipitation Wind Pressure Humidity
    00:00 -2°C° 0 mm 3 mps 748 mmHg 92%
    01:00 -4°C° 0 mm 3 mps 748 mmHg 93%
    02:00 -4°C° 0 mm 3 mps 748 mmHg 94%
    03:00 -5°C° 0 mm 3 mps 749 mmHg 95%
    04:00 -4°C° 0 mm 3 mps 749 mmHg 92%
    05:00 -4°C° 0 mm 3 mps 749 mmHg 90%
    06:00 -2°C° 0 mm 3 mps 750 mmHg 88%
    07:00 -1°C° 0 mm 3 mps 750 mmHg 81%
    08:00 +2°C° 0 mm 2 mps 750 mmHg 74%
    09:00 +3°C° 0 mm 2 mps 751 mmHg 67%
    10:00 +3°C° 0 mm 2 mps 751 mmHg 65%
    11:00 +4°C° 0 mm 2 mps 751 mmHg 62%
    12:00 +5°C° 0 mm 2 mps 751 mmHg 59%
    13:00 +5°C° 0 mm 2 mps 751 mmHg 59%
    14:00 +5°C° 0 mm 2 mps 751 mmHg 59%
    15:00 +5°C° 0 mm 2 mps 751 mmHg 58%
    16:00 +5°C° 0 mm 2 mps 751 mmHg 61%
    17:00 +4°C° 0 mm 2 mps 751 mmHg 64%
    18:00 +4°C° 0 mm 2 mps 751 mmHg 66%
    19:00 +3°C° 0 mm 2 mps 751 mmHg 69%
    20:00 +2°C° 0 mm 2 mps 751 mmHg 72%
    21:00 +1°C° 0 mm 2 mps 751 mmHg 75%
    22:00 0°C° 0 mm 3 mps 751 mmHg 77%
    23:00 -1°C° 0 mm 3 mps 751 mmHg 79%

    26 April, Thursday

    Time Temperature Precipitation Wind Pressure Humidity
    00:00 -1°C° 0 mm 3 mps 751 mmHg 81%
    01:00 -2°C° 0 mm 4 mps 750 mmHg 80%
    02:00 -2°C° 0 mm 4 mps 750 mmHg 80%
    03:00 -2°C° 0 mm 4 mps 750 mmHg 79%
    04:00 -1°C° 0 mm 5 mps 750 mmHg 76%
    05:00 -1°C° 0 mm 5 mps 749 mmHg 73%
    06:00 -1°C° 0 mm 6 mps 749 mmHg 70%
    07:00 +2°C° 0 mm 6 mps 748 mmHg 67%
    08:00 +3°C° 0 mm 7 mps 748 mmHg 64%
    09:00 +5°C° 0 mm 7 mps 747 mmHg 61%
    10:00 +6°C° 0 mm 8 mps 746 mmHg 60%
    11:00 +8°C° 0 mm 9 mps 746 mmHg 59%
    12:00 +9°C° 0 mm 10 mps 745 mmHg 59%
    13:00 +9°C° 0 mm 10 mps 744 mmHg 59%
    14:00 +9°C° 0 mm 10 mps 743 mmHg 60%
    15:00 +9°C° 0 mm 10 mps 742 mmHg 60%
    16:00 +8°C° 1.2 mm 10 mps 741 mmHg 68%
    17:00 +7°C° 1.2 mm 10 mps 740 mmHg 75%
    18:00 +6°C° 1.2 mm 10 mps 739 mmHg 82%
    19:00 +6°C° 1.7 mm 10 mps 738 mmHg 85%
    20:00 +6°C° 1.7 mm 9 mps 738 mmHg 88%
    21:00 +6°C° 1.7 mm 9 mps 737 mmHg 90%
    22:00 +6°C° 0.7 mm 8 mps 737 mmHg 90%
    23:00 +5°C° 0.7 mm 8 mps 736 mmHg 89%

    27 April, Friday

    Time Temperature Precipitation Wind Pressure Humidity
    00:00 +5°C° 0.7 mm 7 mps 736 mmHg 88%
    01:00 +5°C° 0.2 mm 8 mps 737 mmHg 87%
    02:00 +5°C° 0.2 mm 8 mps 737 mmHg 86%
    03:00 +4°C° 0.2 mm 8 mps 738 mmHg 85%
    04:00 +4°C° 0.1 mm 8 mps 739 mmHg 84%
    05:00 +4°C° 0.1 mm 8 mps 740 mmHg 84%
    06:00 +3°C° 0.1 mm 9 mps 741 mmHg 83%
    07:00 +4°C° 0 mm 8 mps 742 mmHg 81%
    08:00 +5°C° 0 mm 8 mps 743 mmHg 80%
    09:00 +5°C° 0 mm 8 mps 743 mmHg 78%
    10:00 +5°C° 0 mm 8 mps 744 mmHg 77%
    11:00 +5°C° 0 mm 8 mps 745 mmHg 76%
    12:00 +6°C° 0 mm 8 mps 746 mmHg 75%
    13:00 +7°C° 0 mm 8 mps 747 mmHg 66%
    14:00 +10°C° 0 mm 8 mps 747 mmHg 58%
    15:00 +11°C° 0 mm 8 mps 748 mmHg 49%
    16:00 +11°C° 0 mm 7 mps 749 mmHg 53%
    17:00 +10°C° 0 mm 5 mps 749 mmHg 58%
    18:00 +10°C° 0 mm 4 mps 749 mmHg 62%
    19:00 +8°C° 0 mm 4 mps 750 mmHg 68%
    20:00 +8°C° 0 mm 3 mps 750 mmHg 73%
    21:00 +7°C° 0 mm 3 mps 751 mmHg 79%
    22:00 +5°C° 0 mm 3 mps 751 mmHg 81%
    23:00 +6°C° 0 mm 2 mps 752 mmHg 83%
    Show more